AAL916 SKBO-KMIA

Flight info

Callsign AAL916
Flight time 3h 22m
Altitude 36000
Route OSUSU4R GIKPU UQ120 PADUD/N0460F380 UQ120 DIBAM DCT KAGEM UL417 LENAX UL795 ALTIB DCT ZEUSS VIICE2
Aircraft B38M/M-SDE1FGHILORVWXY/HB1

Departure

Time 2026-05-06 16:46
Airport El Dorado International Airport (SKBO)

Arrival

Time 2026-05-06 20:09
Airport Miami International Airport (KMIA)
Time Latitude Longitude Altitude Speed Heading
2026-05-06 16:04 4.69724 -74.13749 8375 ft 0 kts 225°
2026-05-06 16:30 4.69726 -74.13747 8373 ft 3 kts 225°
2026-05-06 16:31 4.69745 -74.13729 8375 ft 3 kts 225°
2026-05-06 16:31 4.69759 -74.13712 8375 ft 4 kts 246°
2026-05-06 16:31 4.69761 -74.13688 8375 ft 4 kts 293°
2026-05-06 16:31 4.69750 -74.13670 8374 ft 1 kts 307°
2026-05-06 16:32 4.69764 -74.13688 8375 ft 4 kts 307°
2026-05-06 16:32 4.69780 -74.13710 8375 ft 4 kts 307°
2026-05-06 16:32 4.69786 -74.13718 8375 ft 0 kts 307°
2026-05-06 16:35 4.69790 -74.13723 8375 ft 4 kts 307°
2026-05-06 16:35 4.69818 -74.13760 8375 ft 8 kts 307°
2026-05-06 16:35 4.69850 -74.13802 8375 ft 7 kts 307°
2026-05-06 16:35 4.69857 -74.13812 8374 ft 0 kts 307°
2026-05-06 16:37 4.69859 -74.13814 8374 ft 1 kts 307°
2026-05-06 16:37 4.69873 -74.13833 8375 ft 5 kts 307°
2026-05-06 16:37 4.69895 -74.13862 8375 ft 5 kts 307°
2026-05-06 16:37 4.69917 -74.13892 8375 ft 5 kts 307°
2026-05-06 16:38 4.69942 -74.13926 8375 ft 8 kts 307°
2026-05-06 16:38 4.69988 -74.13986 8375 ft 13 kts 307°
2026-05-06 16:38 4.70046 -74.14041 8374 ft 11 kts 355°
2026-05-06 16:38 4.70105 -74.14001 8375 ft 10 kts 40°
2026-05-06 16:39 4.70164 -74.13982 8373 ft 9 kts 315°
2026-05-06 16:39 4.70200 -74.14030 8374 ft 8 kts 307°
2026-05-06 16:39 4.70247 -74.14092 8375 ft 16 kts 307°
2026-05-06 16:39 4.70334 -74.14207 8375 ft 25 kts 307°
2026-05-06 16:40 4.70446 -74.14355 8373 ft 27 kts 307°
2026-05-06 16:40 4.70558 -74.14503 8371 ft 26 kts 307°
2026-05-06 16:40 4.70666 -74.14646 8376 ft 25 kts 307°
2026-05-06 16:40 4.70770 -74.14783 8373 ft 25 kts 307°
2026-05-06 16:41 4.70871 -74.14918 8375 ft 24 kts 307°
2026-05-06 16:41 4.70971 -74.15049 8375 ft 23 kts 307°
2026-05-06 16:41 4.71066 -74.15176 8375 ft 22 kts 307°
2026-05-06 16:41 4.71148 -74.15285 8374 ft 18 kts 307°
2026-05-06 16:42 4.71214 -74.15366 8376 ft 10 kts 329°
2026-05-06 16:42 4.71270 -74.15346 8376 ft 9 kts 44°
2026-05-06 16:42 4.71277 -74.15338 8376 ft 0 kts 51°
2026-05-06 16:43 4.71277 -74.15337 8376 ft 0 kts 51°
2026-05-06 16:43 4.71289 -74.15318 8375 ft 8 kts 65°
2026-05-06 16:43 4.71313 -74.15226 8372 ft 18 kts 65°
2026-05-06 16:43 4.71305 -74.15164 8372 ft 9 kts 124°
2026-05-06 16:44 4.71295 -74.15150 8371 ft 0 kts 127°
2026-05-06 16:45 4.71289 -74.15142 8371 ft 13 kts 127°
2026-05-06 16:45 4.71100 -74.14893 8371 ft 75 kts 127°
2026-05-06 16:46 4.70667 -74.14321 8374 ft 129 kts 127°
2026-05-06 16:46 4.70029 -74.13474 8371 ft 174 kts 127°
2026-05-06 16:46 4.69227 -74.12426 8583 ft 199 kts 126°
2026-05-06 16:46 4.68468 -74.11261 9343 ft 204 kts 109°
2026-05-06 16:47 4.68481 -74.09838 9774 ft 215 kts 67°
2026-05-06 16:47 4.69439 -74.08680 10443 ft 222 kts 37°
2026-05-06 16:47 4.70887 -74.08089 11015 ft 231 kts 17°
2026-05-06 16:47 4.72470 -74.07755 11651 ft 230 kts 15°
2026-05-06 16:48 4.74071 -74.07438 12150 ft 245 kts 15°
2026-05-06 16:48 4.75800 -74.07003 12516 ft 257 kts 20°
2026-05-06 16:48 4.77539 -74.06501 13187 ft 267 kts 19°
2026-05-06 16:48 4.79392 -74.05973 13282 ft 287 kts 19°
2026-05-06 16:49 4.81378 -74.05405 13590 ft 306 kts 19°
2026-05-06 16:49 4.83497 -74.04798 13884 ft 326 kts 19°
2026-05-06 16:49 4.85695 -74.04107 14097 ft 344 kts 22°
2026-05-06 16:49 4.88012 -74.03314 14393 ft 359 kts 22°
2026-05-06 16:50 4.90396 -74.02508 14981 ft 361 kts 21°
2026-05-06 16:50 4.92779 -74.01705 15587 ft 364 kts 21°
2026-05-06 16:50 4.95192 -74.00894 16206 ft 366 kts 21°
2026-05-06 16:50 4.97616 -74.00077 16791 ft 369 kts 22°
2026-05-06 16:51 5.00064 -73.99255 17329 ft 372 kts 21°
2026-05-06 16:51 5.02560 -73.98516 17863 ft 376 kts 17°
2026-05-06 16:51 5.05114 -73.97899 18419 ft 378 kts 17°
2026-05-06 16:51 5.07682 -73.97264 18876 ft 381 kts 17°
2026-05-06 16:52 5.10260 -73.96618 19339 ft 383 kts 17°
2026-05-06 16:52 5.12854 -73.95964 19736 ft 385 kts 18°
2026-05-06 16:52 5.15457 -73.95305 20206 ft 386 kts 18°
2026-05-06 16:52 5.18043 -73.94650 20609 ft 389 kts 18°
2026-05-06 16:53 5.20675 -73.93984 21076 ft 391 kts 18°
2026-05-06 16:53 5.23319 -73.93314 21504 ft 395 kts 17°
2026-05-06 16:53 5.25998 -73.92641 21917 ft 396 kts 17°
2026-05-06 16:53 5.28684 -73.91972 22306 ft 399 kts 16°
2026-05-06 16:54 5.31391 -73.91300 22679 ft 402 kts 17°
2026-05-06 16:54 5.34112 -73.90622 23110 ft 404 kts 16°
2026-05-06 16:54 5.36856 -73.89940 23455 ft 408 kts 15°
2026-05-06 16:54 5.39612 -73.89253 23812 ft 410 kts 15°
2026-05-06 16:55 5.42394 -73.88559 24039 ft 413 kts 16°
2026-05-06 16:55 5.45183 -73.87865 24392 ft 414 kts 17°
2026-05-06 16:55 5.47993 -73.87164 24685 ft 417 kts 15°
2026-05-06 16:55 5.50808 -73.86463 25044 ft 418 kts 17°
2026-05-06 16:56 5.53648 -73.85803 25321 ft 421 kts 13°
2026-05-06 16:56 5.56535 -73.85222 25602 ft 423 kts 13°
2026-05-06 16:56 5.59427 -73.84631 25894 ft 425 kts 14°
2026-05-06 16:56 5.62297 -73.84039 26190 ft 427 kts 13°
2026-05-06 16:57 5.65220 -73.83432 26497 ft 429 kts 14°
2026-05-06 16:57 5.68158 -73.82824 26798 ft 431 kts 14°
2026-05-06 16:57 5.71107 -73.82213 27083 ft 433 kts 13°
2026-05-06 16:57 5.74068 -73.81601 27354 ft 435 kts 14°
2026-05-06 16:58 5.77037 -73.80985 27670 ft 437 kts 13°
2026-05-06 16:58 5.80025 -73.80366 27909 ft 440 kts 14°
2026-05-06 16:58 5.83027 -73.79743 28196 ft 441 kts 13°
2026-05-06 16:58 5.86054 -73.79117 28443 ft 444 kts 13°
2026-05-06 16:59 5.89079 -73.78490 28706 ft 446 kts 13°
2026-05-06 16:59 5.92133 -73.77857 28970 ft 448 kts 13°
2026-05-06 16:59 5.95192 -73.77223 29250 ft 450 kts 13°
2026-05-06 16:59 5.98227 -73.76594 29494 ft 452 kts 13°
2026-05-06 17:00 6.01315 -73.75953 29742 ft 454 kts 13°
2026-05-06 17:00 6.04413 -73.75316 29992 ft 456 kts 13°
2026-05-06 17:00 6.07521 -73.74676 30209 ft 457 kts 13°
2026-05-06 17:00 6.10645 -73.74033 30410 ft 459 kts 13°
2026-05-06 17:01 6.13788 -73.73385 30605 ft 460 kts 13°
2026-05-06 17:01 6.16937 -73.72737 30788 ft 463 kts 13°
2026-05-06 17:01 6.20098 -73.72085 30991 ft 464 kts 13°
2026-05-06 17:01 6.23272 -73.71432 31186 ft 466 kts 13°
2026-05-06 17:02 6.26408 -73.70786 31386 ft 467 kts 12°
2026-05-06 17:02 6.29595 -73.70129 31552 ft 469 kts 12°
2026-05-06 17:02 6.32799 -73.69468 31746 ft 470 kts 12°
2026-05-06 17:02 6.36013 -73.68806 31941 ft 472 kts 12°
2026-05-06 17:03 6.39238 -73.68141 32125 ft 474 kts 13°
2026-05-06 17:03 6.42463 -73.67476 32304 ft 475 kts 12°
2026-05-06 17:03 6.45701 -73.66808 32553 ft 475 kts 12°
2026-05-06 17:03 6.48941 -73.66140 32812 ft 475 kts 12°
2026-05-06 17:04 6.52175 -73.65473 33081 ft 474 kts 12°
2026-05-06 17:04 6.55412 -73.64806 33381 ft 474 kts 12°
2026-05-06 17:04 6.58634 -73.64142 33633 ft 473 kts 12°
2026-05-06 17:04 6.61863 -73.63475 33877 ft 473 kts 12°
2026-05-06 17:05 6.65074 -73.62813 34119 ft 473 kts 12°
2026-05-06 17:05 6.68301 -73.62147 34335 ft 473 kts 12°
2026-05-06 17:05 6.71520 -73.61483 34582 ft 472 kts 12°
2026-05-06 17:05 6.74688 -73.60829 34815 ft 471 kts 12°
2026-05-06 17:06 6.77896 -73.60167 35062 ft 470 kts 12°
2026-05-06 17:06 6.81096 -73.59506 35280 ft 469 kts 12°
2026-05-06 17:06 6.84292 -73.58847 35508 ft 468 kts 12°
2026-05-06 17:06 6.87479 -73.58189 35736 ft 467 kts 12°
2026-05-06 17:07 6.90653 -73.57533 35922 ft 467 kts 12°
2026-05-06 17:07 6.97009 -73.56259 35922 ft 463 kts
2026-05-06 17:08 7.03434 -73.56365 35904 ft 464 kts 358°
2026-05-06 17:08 7.09875 -73.56641 35930 ft 464 kts 358°
2026-05-06 17:09 7.15231 -73.56891 35921 ft 463 kts 357°
2026-05-06 17:09 7.22726 -73.57247 35922 ft 464 kts 358°
2026-05-06 17:10 7.29173 -73.57555 35936 ft 464 kts 357°
2026-05-06 17:10 7.34584 -73.57814 35919 ft 464 kts 357°
2026-05-06 17:11 7.41004 -73.58121 35907 ft 465 kts 357°
2026-05-06 17:11 7.47469 -73.58430 35910 ft 465 kts 357°
2026-05-06 17:12 7.53935 -73.58740 35911 ft 465 kts 357°
2026-05-06 17:12 7.60392 -73.59049 35909 ft 465 kts 357°
2026-05-06 17:13 7.66862 -73.59359 35907 ft 465 kts 357°
2026-05-06 17:13 7.73341 -73.59669 35907 ft 467 kts 357°
2026-05-06 17:14 7.79833 -73.59980 35904 ft 467 kts 357°
2026-05-06 17:14 7.86282 -73.60290 35912 ft 467 kts 357°
2026-05-06 17:15 7.92770 -73.60601 35916 ft 467 kts 357°
2026-05-06 17:15 7.99263 -73.60912 35917 ft 467 kts 357°
2026-05-06 17:16 8.05742 -73.61223 35926 ft 466 kts 358°
2026-05-06 17:16 8.12235 -73.61535 35921 ft 466 kts 358°
2026-05-06 17:17 8.18711 -73.61852 35925 ft 466 kts 355°
2026-05-06 17:17 8.25010 -73.63157 35917 ft 467 kts 348°
2026-05-06 17:18 8.31347 -73.64614 35932 ft 467 kts 347°
2026-05-06 17:18 8.37682 -73.66085 35914 ft 465 kts 346°
2026-05-06 17:19 8.43993 -73.67551 35907 ft 465 kts 346°
2026-05-06 17:19 8.50307 -73.69019 35905 ft 466 kts 346°
2026-05-06 17:20 8.56621 -73.70486 35895 ft 465 kts 346°
2026-05-06 17:20 8.62898 -73.71946 35908 ft 466 kts 346°
2026-05-06 17:21 8.69214 -73.73416 35908 ft 466 kts 347°
2026-05-06 17:21 8.75529 -73.74885 35918 ft 464 kts 347°
2026-05-06 17:22 8.81803 -73.76346 35904 ft 461 kts 347°
2026-05-06 17:22 8.88061 -73.77804 35905 ft 462 kts 347°
2026-05-06 17:23 8.94321 -73.79262 35892 ft 461 kts 347°
2026-05-06 17:23 9.00581 -73.80721 35894 ft 461 kts 347°
2026-05-06 17:24 9.06800 -73.82172 35893 ft 462 kts 347°
2026-05-06 17:24 9.13096 -73.83640 35890 ft 460 kts 346°
2026-05-06 17:25 9.19288 -73.85084 35891 ft 459 kts 346°
2026-05-06 17:25 9.25538 -73.86543 35886 ft 459 kts 346°
2026-05-06 17:26 9.31768 -73.87998 35891 ft 459 kts 346°
2026-05-06 17:26 9.37997 -73.89452 35885 ft 459 kts 346°
2026-05-06 17:27 9.44169 -73.91107 35896 ft 458 kts 341°
2026-05-06 17:27 9.50255 -73.93044 35878 ft 458 kts 342°
2026-05-06 17:28 9.56342 -73.94942 35888 ft 458 kts 342°
2026-05-06 17:28 9.62433 -73.96836 35889 ft 458 kts 342°
2026-05-06 17:29 9.68520 -73.98730 35891 ft 458 kts 342°
2026-05-06 17:29 9.74566 -74.00612 35888 ft 458 kts 342°
2026-05-06 17:30 9.80652 -74.02507 35883 ft 457 kts 342°
2026-05-06 17:30 9.86718 -74.04396 35892 ft 457 kts 342°
2026-05-06 17:31 9.92799 -74.06291 35895 ft 457 kts 342°
2026-05-06 17:31 9.98878 -74.08186 35891 ft 457 kts 342°
2026-05-06 17:32 10.04953 -74.10081 35894 ft 457 kts 342°
2026-05-06 17:32 10.11026 -74.11975 35894 ft 457 kts 342°
2026-05-06 17:33 10.17064 -74.13860 35898 ft 457 kts 342°
2026-05-06 17:33 10.23148 -74.15759 35895 ft 456 kts 342°
2026-05-06 17:34 10.29205 -74.17651 35899 ft 456 kts 342°
2026-05-06 17:34 10.35266 -74.19545 35900 ft 456 kts 342°
2026-05-06 17:35 10.41331 -74.21441 35910 ft 456 kts 342°
2026-05-06 17:35 10.47356 -74.23325 35892 ft 456 kts 342°
2026-05-06 17:36 10.56446 -74.26170 35900 ft 456 kts 342°
2026-05-06 17:36 10.62511 -74.28068 35896 ft 456 kts 342°
2026-05-06 17:37 10.68570 -74.29966 35905 ft 456 kts 342°
2026-05-06 17:37 10.74630 -74.31864 35904 ft 456 kts 342°
2026-05-06 17:38 10.80691 -74.33764 35905 ft 456 kts 342°
2026-05-06 17:38 10.86752 -74.35665 35908 ft 456 kts 342°
2026-05-06 17:39 10.92814 -74.37567 35910 ft 456 kts 341°
2026-05-06 17:39 10.98869 -74.39467 35907 ft 455 kts 342°
2026-05-06 17:40 11.04877 -74.41353 35908 ft 455 kts 341°
2026-05-06 17:40 11.10926 -74.43253 35915 ft 455 kts 341°
2026-05-06 17:41 11.16974 -74.45153 35911 ft 455 kts 341°
2026-05-06 17:41 11.23022 -74.47055 35914 ft 455 kts 341°
2026-05-06 17:42 11.29067 -74.48956 35920 ft 453 kts 341°
2026-05-06 17:42 11.35086 -74.50850 35925 ft 453 kts 341°
2026-05-06 17:43 11.41096 -74.52742 35914 ft 451 kts 340°
2026-05-06 17:43 11.47102 -74.54634 35913 ft 451 kts 341°
2026-05-06 17:44 11.53114 -74.56528 35934 ft 452 kts 341°
2026-05-06 17:44 11.59129 -74.58424 35933 ft 453 kts 340°
2026-05-06 17:45 11.65106 -74.60310 35933 ft 451 kts 341°
2026-05-06 17:45 11.71093 -74.62198 35926 ft 448 kts 342°
2026-05-06 17:46 11.77066 -74.64083 35947 ft 450 kts 341°
2026-05-06 17:46 11.83052 -74.65973 35940 ft 451 kts 340°
2026-05-06 17:47 11.89029 -74.67862 35930 ft 450 kts 341°
2026-05-06 17:47 11.95012 -74.69742 35941 ft 448 kts 342°
2026-05-06 17:48 12.00968 -74.71593 35955 ft 449 kts 342°
2026-05-06 17:48 12.06935 -74.73450 35954 ft 449 kts 341°
2026-05-06 17:49 12.12898 -74.75308 35939 ft 447 kts 341°
2026-05-06 17:49 12.18860 -74.77165 35940 ft 446 kts 342°
2026-05-06 17:50 12.24820 -74.79023 35960 ft 448 kts 342°
2026-05-06 17:50 12.30776 -74.80879 35958 ft 449 kts 341°
2026-05-06 17:51 12.36746 -74.82743 35953 ft 448 kts 341°
2026-05-06 17:51 12.42698 -74.84600 35950 ft 445 kts 342°
2026-05-06 17:52 12.48648 -74.86458 35967 ft 447 kts 342°
2026-05-06 17:52 12.54560 -74.88305 35963 ft 448 kts 342°
2026-05-06 17:53 12.60511 -74.90165 35953 ft 447 kts 342°
2026-05-06 17:53 12.66461 -74.92027 35957 ft 446 kts 342°
2026-05-06 17:54 12.72396 -74.93884 35970 ft 446 kts 342°
2026-05-06 17:54 12.78340 -74.95745 35979 ft 447 kts 342°
2026-05-06 17:55 12.84284 -74.97606 35956 ft 447 kts 342°
2026-05-06 17:55 12.90202 -74.99461 35956 ft 446 kts 342°
2026-05-06 17:56 12.96149 -75.01326 35974 ft 447 kts 342°
2026-05-06 17:56 13.02101 -75.03193 35975 ft 448 kts 342°
2026-05-06 17:57 13.08065 -75.05064 35969 ft 448 kts 342°
2026-05-06 17:57 13.14013 -75.06931 35955 ft 446 kts 342°
2026-05-06 17:58 13.19967 -75.08802 35972 ft 447 kts 342°
2026-05-06 17:58 13.25921 -75.10674 35977 ft 448 kts 342°
2026-05-06 17:59 13.31864 -75.12542 35973 ft 447 kts 342°
2026-05-06 17:59 13.37762 -75.14398 35965 ft 445 kts 342°
2026-05-06 18:00 13.43697 -75.16267 35976 ft 444 kts 343°
2026-05-06 18:00 13.49605 -75.18127 35987 ft 443 kts 343°
2026-05-06 18:01 13.54501 -75.19670 35972 ft 444 kts 343°
2026-05-06 18:01 13.60407 -75.21532 35963 ft 443 kts 343°
2026-05-06 18:02 13.66313 -75.23395 35978 ft 443 kts 343°
2026-05-06 18:02 13.72222 -75.25260 35983 ft 445 kts 343°
2026-05-06 18:03 13.78135 -75.27126 35980 ft 445 kts 343°
2026-05-06 18:03 13.84034 -75.28991 35965 ft 443 kts 343°
2026-05-06 18:04 13.89938 -75.30856 35971 ft 442 kts 343°
2026-05-06 18:04 13.95834 -75.32721 35988 ft 443 kts 343°
2026-05-06 18:05 14.01724 -75.34585 35985 ft 445 kts 344°
2026-05-06 18:05 14.07622 -75.36452 35974 ft 443 kts 343°
2026-05-06 18:06 14.13465 -75.38303 35972 ft 442 kts 343°
2026-05-06 18:06 14.19362 -75.40171 35992 ft 443 kts 343°
2026-05-06 18:07 14.25258 -75.42042 35993 ft 444 kts 343°
2026-05-06 18:07 14.31161 -75.43915 35984 ft 446 kts 343°
2026-05-06 18:08 14.37084 -75.45794 35972 ft 444 kts 344°
2026-05-06 18:08 14.43013 -75.47678 35986 ft 445 kts 344°
2026-05-06 18:09 14.48943 -75.49562 35996 ft 445 kts 344°
2026-05-06 18:09 14.54852 -75.51442 35988 ft 444 kts 343°
2026-05-06 18:10 14.60746 -75.53317 35978 ft 444 kts 343°
2026-05-06 18:10 14.66643 -75.55194 35981 ft 442 kts 343°
2026-05-06 18:11 14.72546 -75.57074 35985 ft 444 kts 344°
2026-05-06 18:11 14.78441 -75.58954 35998 ft 444 kts 344°
2026-05-06 18:12 14.84294 -75.60819 35991 ft 444 kts 344°
2026-05-06 18:12 14.90183 -75.62698 35987 ft 443 kts 344°
2026-05-06 18:13 14.96081 -75.64580 35992 ft 443 kts 345°
2026-05-06 18:13 15.01976 -75.66467 36000 ft 443 kts 344°
2026-05-06 18:14 15.07855 -75.68353 36000 ft 443 kts 344°
2026-05-06 18:14 15.13741 -75.70240 35992 ft 443 kts 344°
2026-05-06 18:15 15.19628 -75.72129 35995 ft 442 kts 344°
2026-05-06 18:15 15.25515 -75.74019 35999 ft 442 kts 344°
2026-05-06 18:16 15.31398 -75.75909 36001 ft 443 kts 344°
2026-05-06 18:16 15.37240 -75.77786 36003 ft 443 kts 344°
2026-05-06 18:17 15.43123 -75.79679 35998 ft 443 kts 344°
2026-05-06 18:17 15.49025 -75.81578 35999 ft 443 kts 344°
2026-05-06 18:18 15.54917 -75.83476 36000 ft 444 kts 344°
2026-05-06 18:18 15.60812 -75.85375 36004 ft 443 kts 344°
2026-05-06 18:19 15.66703 -75.87274 36005 ft 443 kts 344°
2026-05-06 18:19 15.72590 -75.89173 36004 ft 443 kts 344°
2026-05-06 18:20 15.78486 -75.91076 36007 ft 443 kts 344°
2026-05-06 18:20 15.84372 -75.92978 36007 ft 443 kts 344°
2026-05-06 18:21 15.90217 -75.94866 36017 ft 442 kts 344°
2026-05-06 18:21 15.96078 -75.96762 36008 ft 440 kts 344°
2026-05-06 18:22 16.01931 -75.98656 36010 ft 440 kts 344°
2026-05-06 18:22 16.07776 -76.00548 36009 ft 440 kts 344°
2026-05-06 18:23 16.13631 -76.02445 36011 ft 440 kts 344°
2026-05-06 18:23 16.19479 -76.04341 36008 ft 440 kts 344°
2026-05-06 18:24 16.25335 -76.06241 36016 ft 439 kts 345°
2026-05-06 18:24 16.31109 -76.08115 36014 ft 437 kts 345°
2026-05-06 18:25 16.36914 -76.10000 36016 ft 437 kts 345°
2026-05-06 18:25 16.42723 -76.11888 36043 ft 438 kts 345°
2026-05-06 18:26 16.45633 -76.12834 36285 ft 438 kts 345°
2026-05-06 18:26 16.48542 -76.13781 36503 ft 438 kts 345°
2026-05-06 18:26 16.51450 -76.14727 36713 ft 438 kts 345°
2026-05-06 18:26 16.54355 -76.15672 36927 ft 438 kts 345°
2026-05-06 18:27 16.57264 -76.16619 37138 ft 437 kts 345°
2026-05-06 18:27 16.60164 -76.17563 37391 ft 436 kts 345°
2026-05-06 18:27 16.63058 -76.18506 37657 ft 434 kts 345°
2026-05-06 18:27 16.65933 -76.19443 37907 ft 432 kts 345°
2026-05-06 18:28 16.68804 -76.20379 38047 ft 432 kts 345°
2026-05-06 18:28 16.71661 -76.21311 38012 ft 430 kts 345°
2026-05-06 18:28 16.77349 -76.23166 38023 ft 428 kts 345°
2026-05-06 18:29 16.83048 -76.25026 38022 ft 428 kts 345°
2026-05-06 18:29 16.88741 -76.26885 38022 ft 428 kts 345°
2026-05-06 18:30 16.94388 -76.28751 38033 ft 428 kts 344°
2026-05-06 18:30 17.00033 -76.30623 38024 ft 424 kts 344°
2026-05-06 18:31 17.05668 -76.32493 38020 ft 425 kts 344°
2026-05-06 18:31 17.11301 -76.34364 38022 ft 425 kts 344°
2026-05-06 18:32 17.16938 -76.36236 38020 ft 425 kts 344°
2026-05-06 18:32 17.22574 -76.38110 38020 ft 425 kts 344°
2026-05-06 18:33 17.28202 -76.39983 38026 ft 424 kts 344°
2026-05-06 18:33 17.33808 -76.41849 38016 ft 421 kts 344°
2026-05-06 18:34 17.39401 -76.43712 38018 ft 422 kts 344°
2026-05-06 18:34 17.44955 -76.45563 38016 ft 422 kts 344°
2026-05-06 18:35 17.50548 -76.47429 38018 ft 422 kts 344°
2026-05-06 18:35 17.56145 -76.49296 38026 ft 422 kts 344°
2026-05-06 18:36 17.61738 -76.51165 38011 ft 422 kts 344°
2026-05-06 18:36 17.67356 -76.53042 38019 ft 423 kts 344°
2026-05-06 18:37 17.72013 -76.54599 38023 ft 423 kts 344°
2026-05-06 18:37 17.78535 -76.56781 38023 ft 423 kts 344°
2026-05-06 18:38 17.84146 -76.58660 38025 ft 423 kts 344°
2026-05-06 18:38 17.89755 -76.60539 38023 ft 423 kts 344°
2026-05-06 18:39 17.95364 -76.62420 38028 ft 423 kts 344°
2026-05-06 18:40 18.03713 -76.65222 38017 ft 419 kts 344°
2026-05-06 18:40 18.09266 -76.67085 38017 ft 420 kts 344°
2026-05-06 18:41 18.14854 -76.68965 38011 ft 420 kts 344°
2026-05-06 18:41 18.20422 -76.70837 38025 ft 420 kts 344°
2026-05-06 18:42 18.25989 -76.72711 38028 ft 420 kts 344°
2026-05-06 18:42 18.31567 -76.74589 38038 ft 420 kts 344°
2026-05-06 18:43 18.37128 -76.76463 38026 ft 418 kts 344°
2026-05-06 18:43 18.42673 -76.78333 38032 ft 418 kts 344°
2026-05-06 18:44 18.48221 -76.80204 38029 ft 419 kts 344°
2026-05-06 18:44 18.53765 -76.82077 38033 ft 419 kts 344°
2026-05-06 18:45 18.59282 -76.83941 38033 ft 419 kts 344°
2026-05-06 18:45 18.64833 -76.85818 38031 ft 419 kts 344°
2026-05-06 18:46 18.70382 -76.87695 38028 ft 419 kts 344°
2026-05-06 18:46 18.75945 -76.89579 38034 ft 420 kts 344°
2026-05-06 18:47 18.81510 -76.91464 38037 ft 420 kts 344°
2026-05-06 18:47 18.87075 -76.93351 38034 ft 420 kts 343°
2026-05-06 18:48 18.92597 -76.95225 38039 ft 420 kts 344°
2026-05-06 18:48 18.98165 -76.97115 38036 ft 420 kts 343°
2026-05-06 18:49 19.02790 -76.98687 38041 ft 419 kts 343°
2026-05-06 18:49 19.08332 -77.00571 38040 ft 418 kts 343°
2026-05-06 18:50 19.13873 -77.02456 38043 ft 418 kts 343°
2026-05-06 18:50 19.19410 -77.04340 38039 ft 418 kts 343°
2026-05-06 18:51 19.24949 -77.06227 38042 ft 418 kts 343°
2026-05-06 18:51 19.30494 -77.08117 38044 ft 418 kts 343°
2026-05-06 18:52 19.36071 -77.09862 38056 ft 417 kts 346°
2026-05-06 18:52 19.41670 -77.11482 38048 ft 417 kts 346°
2026-05-06 18:53 19.47262 -77.13114 38046 ft 417 kts 346°
2026-05-06 18:53 19.52822 -77.14738 38046 ft 417 kts 346°
2026-05-06 18:54 19.58427 -77.16377 38048 ft 417 kts 345°
2026-05-06 18:54 19.64025 -77.18015 38047 ft 417 kts 346°
2026-05-06 18:55 19.69622 -77.19654 38058 ft 417 kts 345°
2026-05-06 18:55 19.75200 -77.21288 38052 ft 415 kts 345°
2026-05-06 18:56 19.80777 -77.22923 38043 ft 416 kts 345°
2026-05-06 18:56 19.86338 -77.24551 38058 ft 419 kts 345°
2026-05-06 18:57 19.91958 -77.26192 38046 ft 418 kts 345°
2026-05-06 18:57 19.97580 -77.27836 38051 ft 419 kts 345°
2026-05-06 18:58 20.03196 -77.29479 38050 ft 418 kts 345°
2026-05-06 18:58 20.08805 -77.31122 38043 ft 418 kts 345°
2026-05-06 18:59 20.14419 -77.32766 38045 ft 418 kts 345°
2026-05-06 18:59 20.20025 -77.34411 38041 ft 418 kts 345°
2026-05-06 19:00 20.25639 -77.36058 38039 ft 418 kts 345°
2026-05-06 19:00 20.31218 -77.37696 38048 ft 418 kts 345°
2026-05-06 19:01 20.36824 -77.39344 38047 ft 418 kts 345°
2026-05-06 19:01 20.42430 -77.40993 38039 ft 418 kts 345°
2026-05-06 19:02 20.48046 -77.42646 38040 ft 418 kts 345°
2026-05-06 19:02 20.53656 -77.44298 38040 ft 418 kts 345°
2026-05-06 19:03 20.59233 -77.45895 38036 ft 418 kts 345°
2026-05-06 19:03 20.64857 -77.47506 38037 ft 418 kts 345°
2026-05-06 19:04 20.70481 -77.49119 38043 ft 417 kts 345°
2026-05-06 19:04 20.76085 -77.50727 38041 ft 416 kts 345°
2026-05-06 19:05 20.81690 -77.52337 38034 ft 417 kts 345°
2026-05-06 19:05 20.87249 -77.53934 38042 ft 417 kts 345°
2026-05-06 19:06 20.92848 -77.55545 38040 ft 417 kts 345°
2026-05-06 19:06 20.98453 -77.57158 38035 ft 416 kts 345°
2026-05-06 19:07 21.04049 -77.58768 38032 ft 417 kts 345°
2026-05-06 19:07 21.09657 -77.60383 38034 ft 419 kts 345°
2026-05-06 19:08 21.15304 -77.62010 38035 ft 420 kts 345°
2026-05-06 19:08 21.20945 -77.63637 38036 ft 420 kts 345°
2026-05-06 19:09 21.26588 -77.65265 38032 ft 420 kts 345°
2026-05-06 19:09 21.32190 -77.66883 38038 ft 420 kts 345°
2026-05-06 19:10 21.37828 -77.68513 38033 ft 418 kts 345°
2026-05-06 19:10 21.43434 -77.70134 38035 ft 418 kts 345°
2026-05-06 19:11 21.49050 -77.71760 38041 ft 418 kts 345°
2026-05-06 19:11 21.54666 -77.73388 38040 ft 418 kts 345°
2026-05-06 19:12 21.60281 -77.75015 38047 ft 418 kts 345°
2026-05-06 19:12 21.65905 -77.76648 38040 ft 418 kts 345°
2026-05-06 19:13 21.71512 -77.78276 38037 ft 416 kts 344°
2026-05-06 19:13 21.77106 -77.79902 38041 ft 416 kts 344°
2026-05-06 19:14 21.82666 -77.81519 38054 ft 416 kts 344°
2026-05-06 19:14 21.88248 -77.83183 38048 ft 416 kts 339°
2026-05-06 19:14 21.90796 -77.84628 38044 ft 415 kts 325°
2026-05-06 19:15 21.93148 -77.86451 38042 ft 417 kts 326°
2026-05-06 19:15 21.97819 -77.90176 38053 ft 418 kts 324°
2026-05-06 19:16 22.02448 -77.93972 38064 ft 417 kts 324°
2026-05-06 19:16 22.07056 -77.97781 38047 ft 418 kts 324°
2026-05-06 19:17 22.11678 -78.01609 38048 ft 419 kts 324°
2026-05-06 19:17 22.16276 -78.05420 38052 ft 419 kts 324°
2026-05-06 19:18 22.20898 -78.09254 38051 ft 419 kts 324°
2026-05-06 19:18 22.25522 -78.13093 38050 ft 419 kts 323°
2026-05-06 19:19 22.30145 -78.16934 38052 ft 419 kts 323°
2026-05-06 19:19 22.34767 -78.20778 38049 ft 419 kts 323°
2026-05-06 19:20 22.39393 -78.24629 38054 ft 419 kts 323°
2026-05-06 19:20 22.44014 -78.28478 38046 ft 419 kts 323°
2026-05-06 19:21 22.48635 -78.32331 38052 ft 419 kts 323°
2026-05-06 19:21 22.53226 -78.36150 38044 ft 419 kts 323°
2026-05-06 19:22 22.57851 -78.39990 38052 ft 419 kts 323°
2026-05-06 19:22 22.62480 -78.43837 38055 ft 419 kts 323°
2026-05-06 19:23 22.67107 -78.47686 38048 ft 419 kts 323°
2026-05-06 19:23 22.71730 -78.51535 38054 ft 419 kts 323°
2026-05-06 19:24 22.76404 -78.55277 38039 ft 417 kts 332°
2026-05-06 19:24 22.79104 -78.56391 38053 ft 416 kts 346°
2026-05-06 19:24 22.81944 -78.57054 38047 ft 419 kts 347°
2026-05-06 19:25 22.87673 -78.58255 38075 ft 420 kts 348°
2026-05-06 19:25 22.93427 -78.59367 38064 ft 420 kts 348°
2026-05-06 19:26 22.99186 -78.60455 38059 ft 420 kts 348°
2026-05-06 19:26 23.04944 -78.61540 38060 ft 419 kts 348°
2026-05-06 19:27 23.10650 -78.62615 38060 ft 419 kts 348°
2026-05-06 19:27 23.16398 -78.63700 38061 ft 419 kts 348°
2026-05-06 19:28 23.22149 -78.64786 38063 ft 419 kts 348°
2026-05-06 19:28 23.27895 -78.65872 38071 ft 419 kts 348°
2026-05-06 19:29 23.33640 -78.66959 38062 ft 419 kts 348°
2026-05-06 19:29 23.39389 -78.68048 38067 ft 419 kts 348°
2026-05-06 19:30 23.45140 -78.69138 38053 ft 421 kts 348°
2026-05-06 19:30 23.50922 -78.70234 38065 ft 421 kts 348°
2026-05-06 19:31 23.56682 -78.71328 38068 ft 421 kts 348°
2026-05-06 19:31 23.65301 -78.72966 38060 ft 421 kts 348°
2026-05-06 19:32 23.71068 -78.74065 38060 ft 419 kts 347°
2026-05-06 19:32 23.76820 -78.75165 38061 ft 420 kts 347°
2026-05-06 19:33 23.82578 -78.76259 38065 ft 420 kts 347°
2026-05-06 19:33 23.88331 -78.77355 38064 ft 420 kts 347°
2026-05-06 19:34 23.94089 -78.78454 38061 ft 420 kts 347°
2026-05-06 19:34 23.99837 -78.79592 38059 ft 418 kts 342°
2026-05-06 19:35 24.05438 -78.81273 38069 ft 418 kts 342°
2026-05-06 19:35 24.11017 -78.82888 38067 ft 417 kts 343°
2026-05-06 19:36 24.16634 -78.84503 38064 ft 417 kts 343°
2026-05-06 19:36 24.22257 -78.86119 38064 ft 417 kts 343°
2026-05-06 19:37 24.27877 -78.87736 38067 ft 417 kts 343°
2026-05-06 19:37 24.32549 -78.89082 38067 ft 417 kts 343°
2026-05-06 19:38 24.38165 -78.90700 38064 ft 417 kts 343°
2026-05-06 19:38 24.43776 -78.92319 37827 ft 413 kts 343°
2026-05-06 19:39 24.46561 -78.93122 37019 ft 416 kts 343°
2026-05-06 19:39 24.49374 -78.93935 36155 ft 420 kts 343°
2026-05-06 19:39 24.52205 -78.94753 35509 ft 420 kts 343°
2026-05-06 19:39 24.55017 -78.95565 35046 ft 415 kts 343°
2026-05-06 19:40 24.57791 -78.96368 34600 ft 410 kts 343°
2026-05-06 19:40 24.60544 -78.97164 34128 ft 407 kts 343°
2026-05-06 19:40 24.63275 -78.97955 33576 ft 405 kts 343°
2026-05-06 19:40 24.65986 -78.98740 33053 ft 402 kts 343°
2026-05-06 19:41 24.68678 -78.99520 32578 ft 398 kts 344°
2026-05-06 19:41 24.71344 -79.00292 32111 ft 394 kts 344°
2026-05-06 19:41 24.73986 -79.01059 31655 ft 391 kts 344°
2026-05-06 19:41 24.76579 -79.01813 31193 ft 388 kts 343°
2026-05-06 19:42 24.79059 -79.02945 30668 ft 386 kts 328°
2026-05-06 19:42 24.81129 -79.04841 30149 ft 387 kts 316°
2026-05-06 19:42 24.83028 -79.06936 29645 ft 384 kts 316°
2026-05-06 19:42 24.84893 -79.09034 29170 ft 381 kts 316°
2026-05-06 19:43 24.86728 -79.11132 28723 ft 378 kts 315°
2026-05-06 19:43 24.88532 -79.13218 28285 ft 375 kts 315°
2026-05-06 19:43 24.90299 -79.15272 27853 ft 372 kts 315°
2026-05-06 19:43 24.92068 -79.17335 27418 ft 370 kts 315°
2026-05-06 19:44 24.93835 -79.19398 26954 ft 368 kts 315°
2026-05-06 19:44 24.95623 -79.21486 26445 ft 382 kts 315°
2026-05-06 19:44 24.97480 -79.23656 25984 ft 396 kts 315°
2026-05-06 19:44 24.99406 -79.25909 25533 ft 408 kts 315°
2026-05-06 19:45 25.01359 -79.28195 25104 ft 412 kts 315°
2026-05-06 19:45 25.03335 -79.30508 24655 ft 413 kts 315°
2026-05-06 19:45 25.05302 -79.32811 24206 ft 412 kts 315°
2026-05-06 19:45 25.07265 -79.35112 23757 ft 410 kts 315°
2026-05-06 19:46 25.09219 -79.37403 23252 ft 408 kts 315°
2026-05-06 19:46 25.11157 -79.39677 22800 ft 405 kts 315°
2026-05-06 19:46 25.13083 -79.41939 22336 ft 403 kts 315°
2026-05-06 19:46 25.15010 -79.44171 22300 ft 402 kts 315°
2026-05-06 19:47 25.16923 -79.46428 21704 ft 404 kts 314°
2026-05-06 19:47 25.18844 -79.48719 20890 ft 408 kts 315°
2026-05-06 19:47 25.20754 -79.50983 20252 ft 407 kts 315°
2026-05-06 19:47 25.22675 -79.53255 19813 ft 401 kts 315°
2026-05-06 19:48 25.24565 -79.55491 19388 ft 396 kts 315°
2026-05-06 19:48 25.26427 -79.57693 18961 ft 385 kts 315°
2026-05-06 19:48 25.28227 -79.59823 18558 ft 373 kts 315°
2026-05-06 19:48 25.29967 -79.61883 18121 ft 362 kts 316°
2026-05-06 19:49 25.31657 -79.63885 17704 ft 350 kts 316°
2026-05-06 19:49 25.33297 -79.65827 17315 ft 339 kts 316°
2026-05-06 19:49 25.34883 -79.67707 16954 ft 329 kts 316°
2026-05-06 19:49 25.36426 -79.69536 16483 ft 323 kts 316°
2026-05-06 19:50 25.37946 -79.71338 16152 ft 319 kts 316°
2026-05-06 19:50 25.39362 -79.73219 15806 ft 322 kts 308°
2026-05-06 19:50 25.40626 -79.75244 15503 ft 326 kts 308°
2026-05-06 19:50 25.41936 -79.77299 15186 ft 326 kts 309°
2026-05-06 19:51 25.43245 -79.79333 14870 ft 322 kts 309°
2026-05-06 19:51 25.44526 -79.81312 14558 ft 310 kts 309°
2026-05-06 19:51 25.45764 -79.83217 14247 ft 299 kts 309°
2026-05-06 19:51 25.46962 -79.85057 13945 ft 290 kts 310°
2026-05-06 19:52 25.48118 -79.86839 13623 ft 280 kts 309°
2026-05-06 19:52 25.49228 -79.88576 13293 ft 274 kts 309°
2026-05-06 19:52 25.50329 -79.90297 13026 ft 271 kts 309°
2026-05-06 19:52 25.51410 -79.91987 12759 ft 267 kts 309°
2026-05-06 19:53 25.52478 -79.93655 12497 ft 264 kts 309°
2026-05-06 19:53 25.53536 -79.95309 12225 ft 263 kts 309°
2026-05-06 19:53 25.54595 -79.96964 11966 ft 264 kts 309°
2026-05-06 19:53 25.55657 -79.98625 11712 ft 264 kts 308°
2026-05-06 19:54 25.56706 -80.00266 11450 ft 265 kts 308°
2026-05-06 19:54 25.57770 -80.01932 11185 ft 265 kts 308°
2026-05-06 19:54 25.58832 -80.03594 10900 ft 264 kts 308°
2026-05-06 19:54 25.59894 -80.05258 10577 ft 265 kts 308°
2026-05-06 19:55 25.60956 -80.06920 10283 ft 264 kts 307°
2026-05-06 19:55 25.62014 -80.08579 9992 ft 263 kts 307°
2026-05-06 19:55 25.63069 -80.10233 9670 ft 263 kts 307°
2026-05-06 19:55 25.64123 -80.11887 9350 ft 262 kts 307°
2026-05-06 19:56 25.65173 -80.13535 9057 ft 261 kts 306°
2026-05-06 19:56 25.66033 -80.15290 8801 ft 258 kts 296°
2026-05-06 19:56 25.66777 -80.17089 8546 ft 255 kts 296°
2026-05-06 19:56 25.67528 -80.18856 8321 ft 251 kts 297°
2026-05-06 19:57 25.68279 -80.20599 8115 ft 251 kts 297°
2026-05-06 19:57 25.69023 -80.22345 7930 ft 251 kts 296°
2026-05-06 19:57 25.69761 -80.24106 7677 ft 252 kts 296°
2026-05-06 19:57 25.70504 -80.25868 7436 ft 252 kts 296°
2026-05-06 19:58 25.71112 -80.27684 7158 ft 253 kts 277°
2026-05-06 19:58 25.71110 -80.29628 6905 ft 251 kts 268°
2026-05-06 19:58 25.71040 -80.31556 6650 ft 249 kts 268°
2026-05-06 19:58 25.70964 -80.33467 6401 ft 247 kts 267°
2026-05-06 19:59 25.70882 -80.35363 6146 ft 245 kts 267°
2026-05-06 19:59 25.70798 -80.37243 5900 ft 244 kts 267°
2026-05-06 19:59 25.70711 -80.39103 5688 ft 245 kts 267°
2026-05-06 19:59 25.70622 -80.41010 5457 ft 244 kts 267°
2026-05-06 20:00 25.70534 -80.42860 5207 ft 243 kts 267°
2026-05-06 20:00 25.70417 -80.44722 5009 ft 239 kts 265°
2026-05-06 20:00 25.70273 -80.46523 4899 ft 230 kts 265°
2026-05-06 20:00 25.70134 -80.48261 4841 ft 226 kts 265°
2026-05-06 20:01 25.69990 -80.49998 4779 ft 227 kts 265°
2026-05-06 20:01 25.69848 -80.51744 4726 ft 227 kts 265°
2026-05-06 20:01 25.69714 -80.53423 4733 ft 210 kts 265°
2026-05-06 20:01 25.69595 -80.55025 4672 ft 209 kts 265°
2026-05-06 20:02 25.69491 -80.56634 4558 ft 210 kts 265°
2026-05-06 20:02 25.69558 -80.58237 4456 ft 210 kts 288°
2026-05-06 20:02 25.70381 -80.59542 4374 ft 209 kts 324°
2026-05-06 20:02 25.71721 -80.60076 4307 ft 207 kts 360°
2026-05-06 20:03 25.73094 -80.59677 4321 ft 206 kts 28°
2026-05-06 20:03 25.74340 -80.58870 4378 ft 208 kts 33°
2026-05-06 20:03 25.75572 -80.58023 4385 ft 208 kts 33°
2026-05-06 20:03 25.76740 -80.57093 4338 ft 207 kts 49°
2026-05-06 20:04 25.77434 -80.55747 4145 ft 204 kts 72°
2026-05-06 20:04 25.77703 -80.54210 3887 ft 203 kts 86°
2026-05-06 20:04 25.77756 -80.52644 3652 ft 205 kts 89°
2026-05-06 20:04 25.77798 -80.51063 3404 ft 205 kts 88°
2026-05-06 20:05 25.77861 -80.49480 3131 ft 205 kts 88°
2026-05-06 20:05 25.77926 -80.47907 2877 ft 203 kts 88°
2026-05-06 20:05 25.77991 -80.46351 2624 ft 201 kts 88°
2026-05-06 20:05 25.78055 -80.44805 2371 ft 200 kts 88°
2026-05-06 20:06 25.78120 -80.43273 2138 ft 198 kts 88°
2026-05-06 20:06 25.78181 -80.41788 1901 ft 182 kts 88°
2026-05-06 20:06 25.78239 -80.40423 1649 ft 174 kts 89°
2026-05-06 20:06 25.78294 -80.39131 1465 ft 165 kts 88°
2026-05-06 20:07 25.78345 -80.37855 1223 ft 164 kts 88°
2026-05-06 20:07 25.78395 -80.36637 1039 ft 151 kts 89°
2026-05-06 20:07 25.78440 -80.35515 805 ft 141 kts 89°
2026-05-06 20:07 25.78489 -80.34385 618 ft 148 kts 89°
2026-05-06 20:08 25.78537 -80.33291 424 ft 144 kts 88°
2026-05-06 20:08 25.78589 -80.32169 266 ft 142 kts 89°
2026-05-06 20:08 25.78627 -80.31092 61 ft 140 kts 88°
2026-05-06 20:08 25.78669 -80.30075 19 ft 113 kts 87°
2026-05-06 20:09 25.78696 -80.29424 17 ft 74 kts 88°
2026-05-06 20:09 25.78722 -80.28878 17 ft 56 kts 85°
2026-05-06 20:09 25.78846 -80.28654 17 ft 30 kts 39°
2026-05-06 20:09 25.78982 -80.28543 17 ft 23 kts 35°
2026-05-06 20:10 25.79110 -80.28449 17 ft 16 kts 31°
2026-05-06 20:10 25.79210 -80.28408 17 ft 14 kts 334°
2026-05-06 20:10 25.79268 -80.28508 17 ft 19 kts 300°
2026-05-06 20:10 25.79347 -80.28662 17 ft 22 kts 299°
2026-05-06 20:11 25.79415 -80.28792 17 ft 17 kts 307°
2026-05-06 20:11 25.79498 -80.28805 17 ft 13 kts
2026-05-06 20:11 25.79612 -80.28811 17 ft 20 kts 357°
2026-05-06 20:11 25.79775 -80.28818 17 ft 26 kts 358°
2026-05-06 20:12 25.79922 -80.28812 18 ft 16 kts 38°
2026-05-06 20:12 25.79939 -80.28701 18 ft 16 kts 87°
2026-05-06 20:12 25.79943 -80.28569 18 ft 18 kts 88°
2026-05-06 20:12 25.79949 -80.28424 17 ft 17 kts 87°
2026-05-06 20:13 25.79919 -80.28319 17 ft 14 kts 151°
2026-05-06 20:13 25.79853 -80.28271 17 ft 9 kts 174°
2026-05-06 20:13 25.79832 -80.28269 17 ft 0 kts 176°
2026-05-06 20:13 25.79831 -80.28269 17 ft 0 kts 176°